This demonstration page uses our WeatherBlox Daily Observations layout. Learn more.

Left ArrowRight Arrow

38.89511, -77.03637

Hourly Observations for December 22, 2020

Temp ( °F °C ) Dew Point ( °F °C ) Humidity (%) Winds ( mph kmh ) Pressure ( in mb ) Visibility ( mi km ) Precip ( " mm )
12:52 am 00:52 Cloudy with Light Rain 42 5.6 41 5 96 96 SSW 3 6 29.75 1007 7 11 0.01 0.25
1:52 am 01:52 Mostly Cloudy 42 5.6 39 3.9 89 89 SW 8 13 29.75 1008 10 16 0.00 0.00
2:52 am 02:52 Mostly Cloudy 42 5.6 38 3.3 85 85 SW 7 11 29.76 1008 10 16 0.00 0.00
3:52 am 03:52 Cloudy 42 5.6 36 2.2 79 79 SSW 7 11 29.76 1008 10 16 0.00 0.00
4:52 am 04:52 Mostly Cloudy 40 4.4 35 1.7 83 83 SW 7 11 29.78 1008 10 16 0.00 0.00
5:52 am 05:52 Mostly Cloudy 42 5.6 35 1.7 76 76 W 10 17 29.81 1009 10 16 0.00 0.00
6:52 am 06:52 Mostly Cloudy 44 6.7 34 1.1 68 68 WSW 13 20 29.84 1011 10 16 0.00 0.00
7:52 am 07:52 Partly Cloudy 44 6.7 33 0.6 65 65 W 10 17 29.87 1012 10 16 0.00 0.00
8:52 am 08:52 Partly Cloudy 46 7.8 33 0.6 61 61 WNW 9 15 29.92 1013 10 16 0.00 0.00
9:52 am 09:52 Partly Cloudy 48 8.9 34 1.1 58 58 WNW 17 28 29.96 1015 10 16 0.00 0.00
10:52 am 10:52 Mostly Cloudy 47 8.3 33 0.6 59 59 NW 18 30 29.99 1016 10 16 0.00 0.00
11:52 am 11:52 Cloudy 48 8.9 33 0.6 56 56 W 22 35 30.01 1016 10 16 0.00 0.00
12:52 pm 12:52 Mostly Cloudy 50 10 32 0 50 50 WNW 25 41 30.02 1017 10 16 0.00 0.00
1:52 pm 13:52 Mostly Cloudy 49 9.4 30 -1.1 48 48 NW 15 24 30.05 1018 10 16 0.00 0.00
2:52 pm 14:52 Partly Cloudy 51 10.6 29 -1.7 43 43 WNW 13 20 30.07 1018 10 16 0.00 0.00
3:52 pm 15:52 Partly Cloudy 49 9.4 29 -1.7 46 46 WNW 9 15 30.12 1020 10 16 0.00 0.00
4:52 pm 16:52 Mostly Clear 46 7.8 30 -1.1 54 54 W 15 24 30.15 1021 10 16 0.00 0.00
5:52 pm 17:52 Mostly Clear 45 7.2 30 -1.1 56 56 W 9 15 30.18 1022 10 16 0.00 0.00
6:52 pm 18:52 Mostly Clear 44 6.7 29 -1.7 55 55 W 10 17 30.22 1023 10 16 0.00 0.00
7:52 pm 19:52 Mostly Clear 44 6.7 29 -1.7 55 55 W 12 19 30.25 1025 10 16 0.00 0.00
8:52 pm 20:52 Partly Cloudy 44 6.7 28 -2.2 53 53 W 8 13 30.27 1025 10 16 0.00 0.00
9:52 pm 21:52 Mostly Clear 44 6.7 28 -2.2 53 53 W 9 15 30.29 1026 10 16 0.00 0.00
10:52 pm 22:52 Mostly Clear 42 5.6 28 -2.2 58 58 W 6 9 30.31 1027 10 16 0.00 0.00
11:52 pm 23:52 Mostly Clear 41 5 29 -1.7 62 62 SSE 3 6 30.31 1027 10 16 0.00 0.00

Powered by AerisWeather